Regional Weather Roundup
Issued by NWS Little Rock, AR

Home | Current Version | Previous Version | Graphics & Text | Print | Product List | Glossary On
Versions: 1 2 3 4 5 6 7 8 9 10 11 12 13 14 15 16 17 18 19 20 21 22 23 24 25 26 27 28 29 30 31 32
000
ASUS44 KLZK 090105
RWRLZK

WEATHER ROUNDUP FOR ARKANSAS
NATIONAL WEATHER SERVICE LITTLE ROCK AR
700 PM CST THU DEC 08 2016

NOTE: "FAIR" INDICATES FEW OR NO CLOUDS BELOW 12,000 FEET WITH NO
SIGNIFICANT WEATHER AND/OR OBSTRUCTIONS TO VISIBILITY.

ARZ001-003-010-029-090200-
NORTHWEST ARKANSAS

CITY           SKY/WX    TMP DP  RH WIND       PRES   REMARKS
FAYETTEVILLE   CLEAR     23  11  60 N7        30.61R WCI  15
FORT SMITH     CLEAR     31   9  39 N7        30.64R WCI  24
HARRISON       CLEAR     24  11  57 NW8       30.58R WCI  15
BENTONVILLE    CLEAR     25   7  46 NW5       30.61R WCI  19
ROGERS         CLEAR     23  12  62 NW7       30.61R WCI  15
SILOAM SPGS    CLEAR     23  10  58 N8        30.61R WCI  14
HIGHFILL       PTCLDY    21  11  65 NW9       30.60S WCI  11
SPRINGDALE     CLEAR     25  10  54 NW5       30.61S WCI  19
$$

ARZ004-005-016-090200-
NORTH CENTRAL ARKANSAS

CITY           SKY/WX    TMP DP  RH WIND       PRES   REMARKS
BATESVILLE     CLEAR     30  10  43 CALM      30.59R
FLIPPIN        CLEAR     28  10  47 NW7       30.57R WCI  21
MTN HOME       CLEAR     27  13  55 N5        30.58R WCI  22
$$

ARZ040-041-090200-
WEST CENTRAL ARKANSAS

CITY           SKY/WX    TMP DP  RH WIND       PRES   REMARKS
MENA           PTCLDY    32  12  43 NW3       30.58R
MOUNT IDA      CLOUDY    31  12  45 NW5       30.56R WCI  26
$$

ARZ009-017-025-026-028-090200-
NORTHEAST ARKANSAS

CITY           SKY/WX    TMP DP  RH WIND       PRES   REMARKS
CORNING        FAIR      32  16  51 NW7       30.58R WCI  26
JONESBORO      PTCLDY    32  15  49 NW6       30.57R WCI  26
NEWPORT        CLEAR     28  17  63 MISG        N/A
WALNUT RIDGE   CLEAR     30  10  43 W7        30.58R WCI  23
BLYTHEVILLE    CLEAR     30  21  69 NW6       30.56R WCI  24
$$

ARZ022-023-033-042-044-090200-
CENTRAL ARKANSAS

CITY           SKY/WX    TMP DP  RH WIND       PRES   REMARKS
LITTLE ROCK    CLOUDY    32  17  54 NW5       30.60R WCI  27
N LITTLE ROCK    N/A     31  15  51 CALM      30.61R
JACKSONVILLE   CLOUDY    34  11  39 N3        30.58R
SEARCY         CLOUDY    32  13  45 N8        30.61R WCI  25
HOT SPRINGS    PTCLDY    34  14  43 CALM      30.59R
RUSSELLVILLE   CLEAR     33  10  38 N6        30.59R WCI  28
CLINTON        FAIR      27  16  63 CALM      30.59S
$$

ARZ036-090200-
EAST ARKANSAS

CITY           SKY/WX    TMP DP  RH WIND       PRES   REMARKS
WEST MEMPHIS   CLOUDY    30  22  72 CALM      30.55S
$$

ARZ050-053-066-070-073-090200-
SOUTHWEST ARKANSAS

CITY           SKY/WX    TMP DP  RH WIND       PRES   REMARKS
ARKADELPHIA    FAIR      35  19  52 NW6       30.61R WCI  30
CAMDEN         MOCLDY    36  19  51 N5        30.59R
TEXARKANA      CLEAR     35  16  45 N6        30.58R WCI  30
EL DORADO      PTCLDY    37  28  70 N8        30.57R
DE QUEEN       CLOUDY    31  19  61 CALM      30.59R
$$

ARZ056-057-069-090200-
SOUTHEAST ARKANSAS

CITY           SKY/WX    TMP DP  RH WIND       PRES   REMARKS
PINE BLUFF     PTCLDY    33  18  53 N5        30.59R WCI  29
STUTTGART      PTCLDY    32  19  59 NW7       30.59R WCI  26
MONTICELLO     CLOUDY    36  21  54 VRB3      30.57R

$$






USA.gov is the U.S. government's official web portal to all federal, state and local government web resources and services.